Lady Maria Luisa — 3ENE4 — position and weather

sailwx.info

Track history (hours):
 
Tides and Currents Weather Stations Pressure Air Temp Water Temp Dewpoint Dewpoint Depression Visibility Wind Speed Wind Dir Waves Ship Positions

Lady Maria Luisa

Last reported at 2015-Jul-29 08:15 UTC. Time now 2015-Aug-31 02:36 UTC.
Position N 30°05' E 121°57'.
Warning: this ship's position is 32 days out of date.

Length 224 m; draft 7.1 m.

Type: Cargo ship. MMSI: 355777000.

Date/timePositionNaut miles runAvg speedWind from/ knotsBaromVisibWave heightAir tempDewpointWater temp
2015-Jul-29 08:15N 30°05' E 121°57'8 9.7
2015-Jul-29 07:26N 29°57' E 122°00'25 8.7
2015-Jul-29 04:32N 29°44' E 122°24'7 2.9
2015-Jul-29 02:13N 29°42' E 122°32'5 7.8
2015-Jul-29 01:32N 29°45' E 122°37'1111.3
2015-Jul-29 00:33N 29°52' E 122°47'1211.0
2015-Jul-28 23:30N 30°00' E 122°57'1111.0
2015-Jul-28 22:31N 30°11' E 122°59'1211.9
2015-Jul-28 21:33N 30°22' E 122°59'1211.9
2015-Jul-28 20:33N 30°34' E 122°59'1212.4
2015-Jul-28 19:33N 30°46' E 122°59'1312.8
2015-Jul-28 18:33N 30°59' E 122°54'1514.8
2015-Jul-28 17:34N 31°05' E 122°39'1414.4
2015-Jul-28 16:33N 31°06' E 122°22'1514.6
2015-Jul-28 15:34N 31°13' E 122°07'1312.7
2015-Jul-28 14:31N 31°16' E 121°52'1010.8
2015-Jul-28 13:33N 31°20' E 121°41'10 9.7
2015-Jul-28 12:33N 31°25' E 121°31'8 7.6
2015-Jul-28 11:33N 31°30' E 121°25'1111.0
2015-Jul-28 10:33N 31°38' E 121°15'1312.9
2015-Jul-28 09:33N 31°46' E 121°03'1312.5
2015-Jul-28 08:33N 31°55' E 120°53'1212.3
2015-Jul-28 07:33N 31°60' E 120°39'1211.7
2015-Jul-28 06:33N 32°03' E 120°26'1513.9
2015-Jul-28 05:30N 31°56' E 120°12'1312.9
2015-Jul-28 04:32N 32°01' E 119°58'2 0.7
2015-Jul-28 01:33N 32°02' E 119°56'0 0.0
2015-Jul-27 23:20N 32°02' E 119°56'0 0.0
2015-Jul-27 18:15N 32°02' E 119°56'0 0.0
2015-Jul-27 17:27N 32°02' E 119°56'0 0.0
2015-Jul-27 14:21N 32°02' E 119°56'0 0.0
2015-Jul-27 13:03N 32°02' E 119°56'0 0.0
2015-Jul-27 12:33N 32°02' E 119°56'0 0.0
2015-Jul-27 02:09N 32°02' E 119°56'0 0.0
2015-Jul-27 00:21N 32°02' E 119°56'0 0.0
2015-Jul-26 23:33N 32°02' E 119°56'0 0.0
2015-Jul-26 21:27N 32°02' E 119°56'0 0.0
2015-Jul-26 18:21N 32°02' E 119°56'0 0.0
2015-Jul-26 16:33N 32°02' E 119°56'0 0.0
2015-Jul-26 14:27N 32°02' E 119°56'0 0.0
2015-Jul-25 21:21N 32°02' E 119°56'0 0.0
2015-Jul-25 06:15N 32°02' E 119°56'0 0.0
2015-Jul-24 22:27N 32°02' E 119°56'0 0.0
2015-Jul-24 21:09N 32°02' E 119°56'0 0.0
2015-Jul-24 07:09N 32°02' E 119°56'0 0.0
2015-Jul-23 12:33N 32°02' E 119°57'8 7.7
2015-Jul-23 11:31N 31°57' E 120°04'9 8.9
2015-Jul-23 10:33N 31°56' E 120°14'9 8.2
2015-Jul-23 09:31N 31°58' E 120°24'4 4.0
2015-Jul-23 08:33N 32°01' E 120°27'9 8.6
2015-Jul-23 07:32N 31°60' E 120°37'9 8.8
2015-Jul-23 06:33N 32°01' E 120°47'9 8.5
2015-Jul-23 05:33N 31°54' E 120°53'8 7.9
2015-Jul-23 04:33N 31°47' E 120°57'7 7.5
2015-Jul-23 03:33N 31°45' E 121°06'9 8.7
2015-Jul-23 02:33N 31°39' E 121°13'1 0.6
2015-Jul-23 01:33N 31°39' E 121°14'0 0.1
2015-Jul-23 00:33N 31°39' E 121°14'0 0.1
2015-Jul-22 23:33N 31°39' E 121°14'6 5.7
2015-Jul-22 22:33N 31°35' E 121°18'1211.7
2015-Jul-22 21:33N 31°27' E 121°29'10 9.9
2015-Jul-22 20:33N 31°22' E 121°39'1010.4
2015-Jul-22 19:33N 31°17' E 121°50'1111.5
2015-Jul-22 18:33N 31°14' E 122°03'1211.9
2015-Jul-22 17:33N 31°08' E 122°15'10 9.9
2015-Jul-22 16:33N 31°07' E 122°26'  
Track history (hours):
 
Tides and Currents Weather Stations Pressure Air Temp Water Temp Dewpoint Dewpoint Depression Visibility Wind Speed Wind Dir Waves Ship Positions

Lady Maria Luisa

Last reported at 2015-Jul-29 08:15 UTC. Time now 2015-Aug-31 02:36 UTC.
Position N 30°05' E 121°57'.
Warning: this ship's position is 32 days out of date.

Length 224 m; draft 7.1 m.

Type: Cargo ship. MMSI: 355777000.

Date/timePositionNaut miles runAvg speedWind from/ knotsBaromVisibWave heightAir tempDewpointWater temp
2015-Jul-29 08:15N 30°05' E 121°57'8 9.7
2015-Jul-29 07:26N 29°57' E 122°00'25 8.7
2015-Jul-29 04:32N 29°44' E 122°24'7 2.9
2015-Jul-29 02:13N 29°42' E 122°32'5 7.8
2015-Jul-29 01:32N 29°45' E 122°37'1111.3
2015-Jul-29 00:33N 29°52' E 122°47'1211.0
2015-Jul-28 23:30N 30°00' E 122°57'1111.0
2015-Jul-28 22:31N 30°11' E 122°59'1211.9
2015-Jul-28 21:33N 30°22' E 122°59'1211.9
2015-Jul-28 20:33N 30°34' E 122°59'1212.4
2015-Jul-28 19:33N 30°46' E 122°59'1312.8
2015-Jul-28 18:33N 30°59' E 122°54'1514.8
2015-Jul-28 17:34N 31°05' E 122°39'1414.4
2015-Jul-28 16:33N 31°06' E 122°22'1514.6
2015-Jul-28 15:34N 31°13' E 122°07'1312.7
2015-Jul-28 14:31N 31°16' E 121°52'1010.8
2015-Jul-28 13:33N 31°20' E 121°41'10 9.7
2015-Jul-28 12:33N 31°25' E 121°31'8 7.6
2015-Jul-28 11:33N 31°30' E 121°25'1111.0
2015-Jul-28 10:33N 31°38' E 121°15'1312.9
2015-Jul-28 09:33N 31°46' E 121°03'1312.5
2015-Jul-28 08:33N 31°55' E 120°53'1212.3
2015-Jul-28 07:33N 31°60' E 120°39'1211.7
2015-Jul-28 06:33N 32°03' E 120°26'1513.9
2015-Jul-28 05:30N 31°56' E 120°12'1312.9
2015-Jul-28 04:32N 32°01' E 119°58'2 0.7
2015-Jul-28 01:33N 32°02' E 119°56'0 0.0
2015-Jul-27 23:20N 32°02' E 119°56'0 0.0
2015-Jul-27 18:15N 32°02' E 119°56'0 0.0
2015-Jul-27 17:27N 32°02' E 119°56'0 0.0
2015-Jul-27 14:21N 32°02' E 119°56'0 0.0
2015-Jul-27 13:03N 32°02' E 119°56'0 0.0
2015-Jul-27 12:33N 32°02' E 119°56'0 0.0
2015-Jul-27 02:09N 32°02' E 119°56'0 0.0
2015-Jul-27 00:21N 32°02' E 119°56'0 0.0
2015-Jul-26 23:33N 32°02' E 119°56'0 0.0
2015-Jul-26 21:27N 32°02' E 119°56'0 0.0
2015-Jul-26 18:21N 32°02' E 119°56'0 0.0
2015-Jul-26 16:33N 32°02' E 119°56'0 0.0
2015-Jul-26 14:27N 32°02' E 119°56'0 0.0
2015-Jul-25 21:21N 32°02' E 119°56'0 0.0
2015-Jul-25 06:15N 32°02' E 119°56'0 0.0
2015-Jul-24 22:27N 32°02' E 119°56'0 0.0
2015-Jul-24 21:09N 32°02' E 119°56'0 0.0
2015-Jul-24 07:09N 32°02' E 119°56'0 0.0
2015-Jul-23 12:33N 32°02' E 119°57'8 7.7
2015-Jul-23 11:31N 31°57' E 120°04'9 8.9
2015-Jul-23 10:33N 31°56' E 120°14'9 8.2
2015-Jul-23 09:31N 31°58' E 120°24'4 4.0
2015-Jul-23 08:33N 32°01' E 120°27'9 8.6
2015-Jul-23 07:32N 31°60' E 120°37'9 8.8
2015-Jul-23 06:33N 32°01' E 120°47'9 8.5
2015-Jul-23 05:33N 31°54' E 120°53'8 7.9
2015-Jul-23 04:33N 31°47' E 120°57'7 7.5
2015-Jul-23 03:33N 31°45' E 121°06'9 8.7
2015-Jul-23 02:33N 31°39' E 121°13'1 0.6
2015-Jul-23 01:33N 31°39' E 121°14'0 0.1
2015-Jul-23 00:33N 31°39' E 121°14'0 0.1
2015-Jul-22 23:33N 31°39' E 121°14'6 5.7
2015-Jul-22 22:33N 31°35' E 121°18'1211.7
2015-Jul-22 21:33N 31°27' E 121°29'10 9.9
2015-Jul-22 20:33N 31°22' E 121°39'1010.4
2015-Jul-22 19:33N 31°17' E 121°50'1111.5
2015-Jul-22 18:33N 31°14' E 122°03'1211.9
2015-Jul-22 17:33N 31°08' E 122°15'10 9.9
2015-Jul-22 16:33N 31°07' E 122°26'  

Dump ship's entire track history